Meteo Giornale » Osservazioni meteo Svezia » Gallivare
ore: 07:50 - Osservazioni Meteo Gallivare
Lat. 67° 9' N Lon. 20° 39' E Alt. 359 metri s.l.m.
13 °C
Pioviggine
Temp. 24 Ore
12 °C
18 °C
Est
7.4 Km/h
Dew point 13 °C
Umidità 100 %
Visibilità 3 Km
Il sole sorge alle ore 05:08
Il sole tramonta alle ore 20:06
| Data e Ora | Cielo e Fenomeni | T °C | DP °C | Um. % | Pres. hPa | Vis. km | Vento km/h | |
|---|---|---|---|---|---|---|---|---|
| Oggi h: 07:50 | Pioviggine | 13 | 13 | 100 | 1002 | 3 | E 7.4 | |
| Oggi h: 07:20 | Pioviggine | 13 | 12 | 93 | 1002 | 6 | E 7.4 | |
| Oggi h: 06:50 | Pioviggine | 12 | 12 | 100 | 1002 | 6 | N 3.7 | |
| Oggi h: 06:20 | Nebbia | 12 | 12 | 100 | 1002 | 0.5 | N 0 | |
| Oggi h: 05:50 | Coperto | 12 | 12 | 100 | 1003 | 3 | N 3.7 | |
| Oggi h: 05:20 | Nebbia | 12 | 12 | 100 | 1003 | 0.65 | N 0 | |
| Oggi h: 04:50 | Nebbia | 12 | 12 | 100 | 1003 | 0.7 | N 0 | |
| Oggi h: 04:20 | Foschia | 12 | 12 | 100 | 1003 | 2 | N 0 | |
| Oggi h: 03:50 | Coperto | 12 | 12 | 100 | 1003 | 10 | N 5.5 | |
| Oggi h: 03:20 | Coperto | 12 | 12 | 100 | 1003 | 10 | N 3.7 | |
| Oggi h: 02:50 | Pioviggine | 13 | 13 | 100 | 1003 | 9 | N 5.5 | |
| Oggi h: 02:20 | Pioviggine | 13 | 13 | 100 | 1003 | 10 | N 5.5 | |
| Oggi h: 01:50 | Coperto | 13 | 13 | 100 | 1004 | 10 | N 5.5 | |
| Oggi h: 01:20 | Coperto | 13 | 13 | 100 | 1004 | 10 | N 3.7 | |
| Oggi h: 00:50 | Pioggia | 13 | 13 | 100 | 1004 | 4 | N 0 | |
| Oggi h: 00:20 | Pioggia | 13 | 13 | 100 | 1004 | 6 | N 0 | |
| Ieri h: 23:50 | Pioggia | 13 | 13 | 100 | 1004 | 6 | N 3.7 | |
| Ieri h: 23:20 | Pioggia | 13 | 13 | 100 | 1004 | 10 | N 0 | |
| Ieri h: 22:50 | Pioviggine | 13 | 12 | 93 | 1004 | 10 | N 5.5 | |
| Ieri h: 22:20 | Sereno | 13 | 13 | 100 | 1004 | 10 | N 0 | |
| Ieri h: 21:50 | Sereno | 13 | 13 | 100 | 1004 | 10 | N 0 | |
| Ieri h: 21:20 | Sereno | 14 | 13 | 93 | 1004 | 10 | N 0 | |
| Ieri h: 20:50 | Sereno | 14 | 13 | 93 | 1004 | 10 | N 3.7 | |
| Ieri h: 20:20 | Poco Nuvoloso | 14 | 13 | 93 | 1004 | 10 | E/SE 7.4 | |
| Ieri h: 19:50 | Poco Nuvoloso | 15 | 13 | 87 | 1004 | 10 | E 9.3 | |
| Ieri h: 19:20 | Coperto | 15 | 13 | 87 | 1004 | 10 | E 9.3 | |
| Ieri h: 18:50 | Sereno | 15 | 13 | 87 | 1004 | 10 | E/SE 13 | |
| Ieri h: 18:20 | Coperto | 16 | 13 | 82 | 1004 | 10 | E/SE 13 | |
| Ieri h: 17:50 | Sereno | 16 | 13 | 82 | 1004 | 10 | SE 11.1 | |
| Ieri h: 17:20 | Coperto | 17 | 12 | 72 | 1004 | 10 | SE 11.1 | |
| Ieri h: 16:50 | Sereno | 17 | 12 | 72 | 1004 | 10 | S/SE 11.1 | |
| Ieri h: 16:20 | Sereno | 17 | 11 | 67 | 1003 | 10 | SE 11.1 | |
| Ieri h: 15:50 | Sereno | 17 | 12 | 72 | 1003 | 10 | SE 13 | |
| Ieri h: 15:20 | Poco Nuvoloso | 18 | 11 | 63 | 1003 | 10 | SE 11.1 | |
| Ieri h: 14:50 | Poco Nuvoloso | 17 | 11 | 67 | 1003 | 10 | N 3.7 | |
| Ieri h: 14:20 | Sereno | 17 | 10 | 63 | 1003 | 10 | N 3.7 | |
| Ieri h: 13:50 | Poco Nuvoloso | 17 | 10 | 63 | 1003 | 10 | N 3.7 | |
| Ieri h: 13:20 | Sereno | 17 | 10 | 63 | 1003 | 10 | SE 7.4 | |
| Ieri h: 12:50 | Sereno | 16 | 12 | 77 | 1003 | 10 | N 3.7 | |
| Ieri h: 12:20 | Nuvoloso | 16 | 11 | 72 | 1003 | 10 | N 3.7 | |
| Ieri h: 11:50 | Coperto | 15 | 12 | 82 | 1003 | 10 | N 3.7 | |
| Ieri h: 11:20 | Coperto | 14 | 12 | 87 | 1003 | 10 | N 5.5 | |
| Ieri h: 10:50 | Coperto | 15 | 12 | 82 | 1003 | 10 | N 5.5 | |
| Ieri h: 10:20 | Coperto | 14 | 12 | 87 | 1003 | 10 | N 3.7 | |
| Ieri h: 09:50 | Coperto | 14 | 12 | 87 | 1003 | 10 | N 5.5 | |
| Ieri h: 09:20 | Coperto | 13 | 12 | 93 | 1003 | 10 | NO 7.4 | |
| Ieri h: 08:50 | Coperto | 13 | 12 | 93 | 1003 | 10 | O/NO 7.4 | |



